Prague, Czech Republic

3:31 AM CET on February 14, 2016 (GMT +0100)
Prague

Weather History for 11518 - January, 2014

Change the Weather History Date:

Monday, January 13, 2014

  Actual Average Record
Temperature  
Mean Temperature 30 °F -  
Max Temperature 38 °F 35 °F - ()
Min Temperature 23 °F 23 °F - ()
Degree Days  
Heating Degree Days 34    
Moisture  
Dew Point 28 °F    
Average Humidity 85    
Maximum Humidity 100    
Minimum Humidity 52    
Precipitation  
Precipitation 0.00 in 0.03 in - ()
Sea Level Pressure  
Sea Level Pressure 29.99 in    
Wind  
Wind Speed 6 mph ()    
Max Wind Speed 14 mph    
Max Gust Speed -    
Visibility 7.5 miles    
Events      
T = Trace of Precipitation, MM = Missing Value Source: Averaged Metar Reports

Daily Weather History Graph

Daily Weather History Graph

Search for Another Location

Airport or City:

Trip Planner

Search our weather history database for the weather conditions in past years. The results will help you decide how hot, cold, wet, or windy it might be!

Date:

Astronomy

Jan. 13, 2014 Rise Set
Actual Time 7:57 AM CET 4:26 PM CET
Civil Twilight 7:20 AM CET 5:03 PM CET
Nautical Twilight 6:39 AM CET 5:44 PM CET
Astronomical Twilight 6:00 AM CET 6:22 PM CET
Moon 2:29 PM CET (1/13) 5:30 AM CET (1/13)
Length of Visible Light 9h 43m
Length of Day
8h 28m
Waxing Gibbous, 93% of the Moon is Illuminated
Jan 13
Waxing Gibbous
Jan 16
Full
Jan 24
Last Quarter
Jan 30
New
Feb 6
First Quarter

Hourly Weather History & Observations

Time (CET) Temp. Windchill Dew Point Humidity Pressure Visibility Wind Dir Wind Speed Gust Speed Precip Events Conditions
12:00 AM 29 °F - 26 °F 82% 30.17 in 19 mi SSW 8.9 mph - -   Partly Cloudy
12:00 AM 30.2 °F 21.3 °F 26.6 °F 86% 30.09 in - SSW 10.4 mph - N/A   Clear
12:30 AM 28.4 °F 19.7 °F 26.6 °F 93% 30.06 in - SSW 9.2 mph - N/A   Clear
1:00 AM 29 °F - 25 °F 80% 30.15 in 19 mi SSW 8.9 mph - -   Mostly Cloudy
1:00 AM 28.4 °F 20.4 °F 26.6 °F 93% 30.06 in - SSW 8.1 mph - N/A   Clear
1:30 AM 28.4 °F 21.2 °F 24.8 °F 86% 30.06 in - SSW 6.9 mph - N/A   Clear
2:00 AM 28 °F - 25 °F 85% 30.14 in 19 mi SSW 6.7 mph - -   Partly Cloudy
2:00 AM 28.4 °F 21.2 °F 26.6 °F 93% 30.06 in - SSW 6.9 mph - N/A   Clear
2:30 AM 26.6 °F 18.2 °F 24.8 °F 93% 30.06 in - SSW 8.1 mph - N/A   Clear
3:00 AM 26 °F - 24 °F 87% 30.14 in 16 mi SW 6.7 mph - -   Scattered Clouds
3:00 AM 26.6 °F 20.0 °F 24.8 °F 93% 30.06 in - SSW 5.8 mph - N/A   Clear
3:30 AM 26.6 °F 19.1 °F 23.0 °F 86% 30.04 in - SSW 6.9 mph - N/A   Clear
4:00 AM 27 °F - 25 °F 88% 30.12 in 12 mi South 6.7 mph - -   Scattered Clouds
4:00 AM 26.6 °F 21.2 °F 24.8 °F 93% 30.04 in - South 4.6 mph - N/A   Clear
4:30 AM 26.6 °F 22.6 °F 24.8 °F 93% 30.04 in - South 3.5 mph - N/A   Clear
5:00 AM 26 °F - 24 °F 87% 30.11 in 9 mi SSE 4.5 mph - -   Scattered Clouds
5:00 AM 26.6 °F 21.2 °F 24.8 °F 93% 30.04 in - SSW 4.6 mph - N/A   Clear
5:30 AM 26.6 °F - 24.8 °F 93% 30.01 in - South 2.3 mph - N/A   Clear
6:00 AM 26 °F - 24 °F 90% 30.10 in 7 mi South 6.7 mph - -   Clear
6:00 AM 26.6 °F 22.6 °F 24.8 °F 93% 30.01 in - South 3.5 mph - N/A   Clear
6:30 AM 24.8 °F 17.9 °F 23.0 °F 93% 30.01 in - South 5.8 mph - N/A   Clear
7:00 AM 25 °F - 23 °F 90% 30.09 in 7 mi South 6.7 mph - -   Clear
7:00 AM 24.8 °F 16.9 °F 23.0 °F 93% 30.01 in - South 6.9 mph - N/A   Clear
7:30 AM 26.6 °F 18.2 °F 24.8 °F 93% 30.01 in - South 8.1 mph - N/A   Clear
8:00 AM 25 °F - 23 °F 91% 30.09 in 6 mi South 6.7 mph - -   Mist
8:00 AM 24.8 °F 16.1 °F 23.0 °F 93% 30.01 in 5.6 mi South 8.1 mph - N/A   Unknown
8:30 AM 24.8 °F 19.1 °F 23.0 °F 93% 30.01 in 5.6 mi SE 4.6 mph - N/A   Unknown
9:00 AM 26 °F - 24 °F 86% 30.08 in 6 mi South 4.5 mph - -   Scattered Clouds
9:00 AM 26.6 °F 20.0 °F 24.8 °F 93% 30.01 in - SSE 5.8 mph - N/A   Clear
9:30 AM 28.4 °F - 24.8 °F 86% 30.01 in - Variable 2.3 mph - N/A   Clear
10:00 AM 30 °F - 26 °F 79% 30.07 in 6 mi South 2.2 mph - -   Partly Cloudy
10:00 AM 30.2 °F - 26.6 °F 86% 29.98 in - Variable 2.3 mph - N/A   Clear
10:30 AM 32.0 °F 28.7 °F 26.6 °F 80% 29.98 in - SSE 3.5 mph - N/A   Clear
11:00 AM 32 °F - 27 °F 73% 30.05 in 16 mi SSE 2.2 mph - -   Partly Cloudy
11:00 AM 32.0 °F - 26.6 °F 80% 29.98 in - SSE 2.3 mph - N/A   Clear
11:30 AM 35.6 °F - 24.8 °F 65% 29.98 in - Variable 2.3 mph - N/A   Clear
12:00 PM 36 °F - 25 °F 52% 30.03 in 16 mi SSW 4.5 mph - -   Partly Cloudy
12:00 PM 35.6 °F 32.8 °F 23.0 °F 60% 29.98 in - SW 3.5 mph - N/A   Clear
12:30 PM 37.4 °F - 24.8 °F 60% 29.95 in - Variable 2.3 mph - N/A   Clear
1:00 PM 38 °F - 27 °F 52% 30.00 in 16 mi South 6.7 mph - -   Partly Cloudy
1:00 PM 39.2 °F 35.0 °F 26.6 °F 61% 29.95 in - South 5.8 mph - N/A   Clear
1:30 PM 39.2 °F 35.0 °F 24.8 °F 56% 29.95 in - SW 5.8 mph - N/A   Clear
2:00 PM 38 °F - 27 °F 54% 29.98 in 12 mi WSW 11.2 mph - -   Scattered Clouds
2:00 PM 37.4 °F 28.9 °F 26.6 °F 65% 29.92 in - SW 13.8 mph - N/A   Clear
2:30 PM 37.4 °F 29.3 °F 30.2 °F 75% 29.92 in 6.2 mi SW 12.7 mph - N/A   Mostly Cloudy
2:50 PM 35.6 °F 28.0 °F 30.2 °F 81% 29.92 in 6.2 mi West 10.4 mph - N/A   Mostly Cloudy
3:00 PM 36 °F - 31 °F 74% 29.99 in 9 mi SW 8.9 mph - -   Mostly Cloudy
3:00 PM 35.6 °F 28.0 °F 30.2 °F 81% 29.92 in 6.2 mi West 10.4 mph - N/A   Mostly Cloudy
3:30 PM 35.6 °F 29.2 °F 32.0 °F 87% 29.92 in 6.2 mi WSW 8.1 mph - N/A   Overcast
4:00 PM 35 °F - 31 °F 81% 29.99 in 9 mi WSW 6.7 mph - -   Overcast
4:00 PM 35.6 °F 29.2 °F 32.0 °F 87% 29.92 in 6.2 mi WSW 8.1 mph - N/A   Overcast
4:30 PM 35.6 °F 28.6 °F 32.0 °F 87% 29.92 in 6.2 mi WSW 9.2 mph - N/A   Overcast
5:00 PM 35 °F - 32 °F 83% 29.98 in 9 mi WSW 6.7 mph - -   Overcast
5:00 PM 35.6 °F 31.7 °F 32.0 °F 87% 29.92 in 6.2 mi WSW 4.6 mph - N/A   Overcast
5:30 PM 35.6 °F 31.7 °F 32.0 °F 87% 29.92 in 6.2 mi SW 4.6 mph - N/A   Overcast
6:00 PM 35 °F - 33 °F 87% 29.97 in 6 mi SW 4.5 mph - -   Overcast
6:00 PM 35.6 °F 32.8 °F 32.0 °F 87% 29.92 in 6.2 mi SSW 3.5 mph - N/A   Overcast
6:30 PM 35.6 °F - 32.0 °F 87% 29.92 in 6.2 mi WSW 2.3 mph - N/A   Overcast
7:00 PM 35 °F - 32 °F 85% 29.97 in 6 mi SW 2.2 mph - -   Overcast
7:00 PM 35.6 °F - 32.0 °F 87% 29.92 in 6.2 mi Variable 2.3 mph - N/A   Overcast
7:30 PM 35.6 °F 31.7 °F 32.0 °F 87% 29.92 in 6.2 mi SW 4.6 mph - N/A   Overcast
8:00 PM 35 °F - 33 °F 89% 29.97 in 6 mi SSW 4.5 mph - -   Overcast
8:00 PM 35.6 °F 31.7 °F 33.8 °F 93% 29.92 in 6.2 mi SW 4.6 mph - N/A   Overcast
8:30 PM 35.6 °F 32.8 °F 33.8 °F 93% 29.89 in 5.0 mi SSW 3.5 mph - N/A   Overcast
9:00 PM 35 °F - 33 °F 91% 29.96 in 5 mi SSE 2.2 mph - -   Mist
9:00 PM 35.6 °F - 33.8 °F 93% 29.89 in 5.0 mi Variable 2.3 mph - N/A   Overcast
9:30 PM 35.6 °F - 33.8 °F 93% 29.89 in 5.0 mi Variable 2.3 mph - N/A   Overcast
10:00 PM 35 °F - 33 °F 92% 29.96 in 4 mi WNW 2.2 mph - -   Mist
10:00 PM 35.6 °F - 33.8 °F 93% 29.89 in 4.3 mi Variable 2.3 mph - N/A   Overcast
10:13 PM 33.8 °F - 33.8 °F 100% 29.89 in 2.8 mi Variable 2.3 mph - N/A   Overcast
10:30 PM 33.8 °F - 33.8 °F 100% 29.89 in 2.8 mi Variable 2.3 mph - N/A   Overcast
10:39 PM 35.6 °F - 33.8 °F 93% 29.89 in 2.8 mi Variable 2.3 mph - N/A   Overcast
11:00 PM 35 °F - 34 °F 92% 29.94 in 2 mi North 4.5 mph - -   Mist
11:00 PM 35.6 °F - 33.8 °F 93% 29.89 in 2.5 mi Variable 2.3 mph - N/A   Overcast
11:04 PM 35.6 °F 32.8 °F 33.8 °F 93% 29.86 in 1.4 mi NE 3.5 mph - N/A   Overcast
11:30 PM 33.8 °F 29.6 °F 33.8 °F 100% 29.86 in 1.1 mi NE 4.6 mph - N/A   Overcast